Weather History for CWWL - January, 2013

Change the Weather History Date:

Monday, January 7, 2013

  Actual Average Record
Temperature  
Mean Temperature 43 °F -  
Max Temperature 46 °F - - ()
Min Temperature 40 °F - - ()
Degree Days  
Heating Degree Days 22    
Moisture  
Dew Point 38 °F    
Average Humidity 79    
Maximum Humidity 96    
Minimum Humidity 59    
Precipitation  
Precipitation 0.04 in - - ()
Sea Level Pressure  
Sea Level Pressure 29.68 in    
Wind  
Wind Speed 16 mph ()    
Max Wind Speed 33 mph    
Max Gust Speed 41 mph    
T = Trace of Precipitation, MM = Missing Value Source: Averaged Metar Reports

Daily Weather History Graph

Daily Weather History Graph

Search for Another Location

Airport or City:

Trip Planner

Search our weather history database for the weather conditions in past years. The results will help you decide how hot, cold, wet, or windy it might be!

Date:

Astronomy

Jan. 07, 2013 Rise Set
Actual Time 8:56 AM PST 4:42 PM PST
Civil Twilight 8:14 AM PST 5:24 PM PST
Nautical Twilight 7:29 AM PST 6:08 PM PST
Astronomical Twilight 6:47 AM PST 6:51 PM PST
Moon 4:18 AM PST (1/7) 1:05 PM PST (1/7)
Length of Visible Light 9h 09m
Length of Day
7h 45m
Waning Crescent, 21% of the Moon is Illuminated
Jan 7
Waning Crescent
Jan 11
New
Jan 18
First Quarter
Jan 26
Full
Feb 3
Last Quarter

Hourly Weather History & Observations

Time (PST) Temp. Windchill Dew Point Humidity Pressure Visibility Wind Dir Wind Speed Gust Speed Precip Events Conditions
12:00 AM 42.8 °F 33.8 °F 41.5 °F 95% 29.47 in - SSE 21.9 mph 33.4 mph N/A   Unknown
1:00 AM 44.2 °F 33.7 °F 43.0 °F 95% 29.47 in - SSE 33.4 mph 41.4 mph N/A   Unknown
2:00 AM 44.6 °F 36.4 °F 43.5 °F 96% 29.49 in - SSE 20.7 mph 29.9 mph 0.02 in   Unknown
3:00 AM 45.9 °F 40.8 °F 44.8 °F 96% 29.49 in - SSW 10.4 mph - 0.03 in   Unknown
4:00 AM 46 °F - 44 °F 89% 29.48 in - West 9.2 mph - -  
4:00 AM 46.0 °F 41.4 °F 43.7 °F 92% 29.48 in - West 9.2 mph - N/A   Unknown
5:00 AM 45.9 °F 41.7 °F 43.3 °F 91% 29.48 in - WSW 8.1 mph - N/A   Unknown
6:00 AM 46.2 °F 40.1 °F 43.0 °F 88% 29.51 in - WSW 13.8 mph - N/A   Unknown
7:00 AM 45.3 °F 39.7 °F 41.9 °F 88% 29.52 in - West 11.5 mph - N/A   Unknown
8:00 AM 44.6 °F 35.9 °F 39.6 °F 82% 29.56 in - West 23.0 mph - N/A   Unknown
10:00 AM 45 °F - 39 °F 71% 29.62 in - WSW 15.0 mph - -  
10:00 AM 44.8 °F 38.0 °F 38.7 °F 79% 29.62 in - WSW 15.0 mph - N/A   Unknown
11:00 AM 42.6 °F 33.5 °F 34.9 °F 74% 29.67 in - West 21.9 mph - N/A   Unknown
12:00 PM 43.7 °F 35.2 °F 36.9 °F 77% 29.70 in - West 20.7 mph - N/A   Unknown
1:00 PM 44.1 °F 35.4 °F 35.4 °F 72% 29.71 in - West 21.9 mph - N/A   Unknown
2:00 PM 43.7 °F 34.7 °F 36.1 °F 75% 29.73 in - West 23.0 mph - N/A   Unknown
3:00 PM 44.2 °F 34.6 °F 33.4 °F 66% 29.78 in - West 27.6 mph 35.7 mph N/A   Unknown
4:00 PM 44 °F - 35 °F 59% 29.81 in - West 23.0 mph - -  
4:00 PM 43.7 °F 34.7 °F 34.5 °F 70% 29.81 in - West 23.0 mph - N/A   Unknown
5:00 PM 43.5 °F 35.0 °F 35.1 °F 72% 29.84 in - West 20.7 mph - N/A   Unknown
6:00 PM 43.7 °F 35.4 °F 33.6 °F 68% 29.86 in - West 19.6 mph - N/A   Unknown
7:00 PM 43.2 °F 34.7 °F 34.2 °F 71% 29.87 in - West 19.6 mph - N/A   Unknown
8:00 PM 42.8 °F 36.6 °F 35.6 °F 76% 29.88 in - WSW 11.5 mph - N/A   Unknown
9:00 PM 42.8 °F 37.5 °F 35.8 °F 76% 29.89 in - WSW 9.2 mph - N/A   Unknown
10:00 PM 43 °F - 34 °F 61% 29.89 in - SW 11.5 mph - -  
10:00 PM 42.8 °F 36.6 °F 34.2 °F 72% 29.89 in - SW 11.5 mph - N/A   Unknown
11:00 PM 42.8 °F 35.1 °F 35.1 °F 74% 29.91 in - WSW 16.1 mph - N/A   Unknown